GW3919 Weather Reports


Display with metric or nautical units.
time (UTC)temp
F
wind
direction
speed
MPH
gust
MPH
rain 1hr
in
rain 24hr
in
rain mn
in
humidity
%
barometer
mb
20260905025417 90 310 0.0 2.0 0.00 0.00 0.00 60 1013.3
20260905024914 90 290 0.0 2.0 0.00 0.00 0.00 60 1013.3
20260905024414 90 249 0.0 2.0 0.00 0.00 0.00 59 1013.2
20260905023909 90 242 0.0 2.0 0.00 0.00 0.00 59 1013.1
20260905023404 90 295 2.0 3.0 0.00 0.00 0.00 59 1013.2
20260905022903 90 303 2.0 2.0 0.00 0.00 0.00 59 1013.0
20260905022353 90 308 1.0 2.0 0.00 0.00 0.00 59 1012.7
20260905021848 90 266 1.0 1.0 0.00 0.00 0.00 59 1012.6
20260905021343 90 326 1.0 3.0 0.00 0.00 0.00 59 1012.7
20260905020838 90 246 1.0 2.0 0.00 0.00 0.00 59 1012.6
20260905020332 90 263 1.0 2.0 0.00 0.00 0.00 59 1012.4
20260905015831 91 266 1.0 2.0 0.00 0.00 0.00 59 1012.4
20260905015331 91 258 0.0 3.0 0.00 0.00 0.00 58 1012.3
20260905014825 91 283 1.0 2.0 0.00 0.00 0.00 58 1012.2
20260905014321 91 249 0.0 2.0 0.00 0.00 0.00 57 1012.3
20260905013815 92 232 2.0 3.0 0.00 0.00 0.00 56 1012.3
20260905013312 92 255 0.0 2.0 0.00 0.00 0.00 56 1012.0
20260905012807 92 236 0.0 1.0 0.00 0.00 0.00 55 1012.3
20260905012306 93 251 1.0 2.0 0.00 0.00 0.00 55 1012.3
20260905011759 93 305 2.0 3.0 0.00 0.00 0.00 54 1012.3
20260905011254 93 330 3.0 4.0 0.00 0.00 0.00 54 1012.1
20260905010749 93 304 2.0 2.0 0.00 0.00 0.00 54 1012.2
20260905010244 93 285 1.0 2.0 0.00 0.00 0.00 54 1011.9
20260905005741 93 290 2.0 2.0 0.00 0.00 0.00 54 1012.2
20260905005236 93 301 0.0 3.0 0.00 0.00 0.00 53 1011.9
20260905004736 94 279 1.0 2.0 0.00 0.00 0.00 53 1011.7
20260905004231 94 307 0.0 2.0 0.00 0.00 0.00 52 1011.8
20260905003731 94 286 2.0 3.0 0.00 0.00 0.00 52 1011.7
20260905003227 95 281 2.0 4.0 0.00 0.00 0.00 52 1011.8
20260905002723 95 303 2.0 5.0 0.00 0.00 0.00 50 1011.7
20260905002222 95 257 2.0 2.0 0.00 0.00 0.00 50 1011.6
20260905001717 96 300 3.0 3.0 0.00 0.00 0.00 50 1011.7
20260905001216 96 301 2.0 4.0 0.00 0.00 0.00 49 1011.7
20260905000712 96 267 2.0 3.0 0.00 0.00 0.00 49 1011.6
20260905000208 97 111 0.0 3.0 0.00 0.00 0.00 48 1011.5
20260904235707 97 265 2.0 3.0 0.00 0.00 0.00 48 1011.8
20260904235202 98 284 0.0 3.0 0.00 0.00 0.00 48 1011.5
20260904234657 97 277 1.0 4.0 0.00 0.00 0.00 48 1011.6
20260904234152 98 274 7.0 8.0 0.00 0.00 0.00 47 1011.4
20260904233648 99 278 2.0 3.0 0.00 0.00 0.00 47 1011.4
20260904233144 99 271 5.0 5.0 0.00 0.00 0.00 46 1011.4
20260904232640 100 284 2.0 4.0 0.00 0.00 0.00 46 1011.4
20260904232136 100 279 3.0 4.0 0.00 0.00 0.00 46 1011.4
20260904231632 99 308 5.0 5.0 0.00 0.00 0.00 46 1011.3
20260904231127 99 294 3.0 6.0 0.00 0.00 0.00 47 1011.3
20260904230627 99 289 2.0 6.0 0.00 0.00 0.00 47 1011.3
20260904230123 99 299 5.0 6.0 0.00 0.00 0.00 48 1011.4
20260904225620 98 289 4.0 6.0 0.00 0.00 0.00 48 1011.4
20260904225115 99 265 4.0 6.0 0.00 0.00 0.00 48 1011.4
20260904224609 98 277 3.0 6.0 0.00 0.00 0.00 49 1011.6
20260904224104 98 282 1.0 8.0 0.00 0.00 0.00 49 1011.6
20260904223603 98 292 3.0 7.0 0.00 0.00 0.00 49 1011.6
20260904223059 98 268 2.0 7.0 0.00 0.00 0.00 50 1011.6
20260904222555 99 312 6.0 6.0 0.00 0.00 0.00 49 1011.6
20260904222049 99 293 4.0 4.0 0.00 0.00 0.00 49 1011.6
20260904221544 98 283 3.0 6.0 0.00 0.00 0.00 50 1011.5
20260904221039 98 276 5.0 6.0 0.00 0.00 0.00 50 1011.6
20260904220538 99 290 3.0 6.0 0.00 0.00 0.00 49 1011.4
20260904220034 99 256 4.0 4.0 0.00 0.00 0.00 49 1011.6
20260904215528 100 287 3.0 5.0 0.00 0.00 0.00 48 1011.7
20260904215024 100 297 3.0 4.0 0.00 0.00 0.00 48 1011.6
20260904214520 99 302 2.0 4.0 0.00 0.00 0.00 49 1011.7
20260904214015 98 315 2.0 3.0 0.00 0.00 0.00 49 1011.7
20260904213512 100 295 5.0 5.0 0.00 0.00 0.00 47 1011.7
20260904213010 102 272 2.0 5.0 0.00 0.00 0.00 46 1011.9
20260904212508 102 252 5.0 7.0 0.00 0.00 0.00 46 1011.9
20260904212003 101 240 3.0 5.0 0.00 0.00 0.00 46 1012.0
20260904211458 101 249 2.0 6.0 0.00 0.00 0.00 46 1011.9
20260904210954 102 307 3.0 5.0 0.00 0.00 0.00 46 1012.2
20260904210453 101 290 2.0 4.0 0.00 0.00 0.00 46 1012.0
20260904205949 101 265 0.0 5.0 0.00 0.00 0.00 47 1012.1
20260904205444 101 316 2.0 3.0 0.00 0.00 0.00 46 1012.2
20260904204941 102 322 0.0 4.0 0.00 0.00 0.00 46 1012.2
20260904204437 102 277 4.0 6.0 0.00 0.00 0.00 45 1012.2
20260904203933 102 295 2.0 3.0 0.00 0.00 0.00 45 1012.3
20260904203429 101 293 3.0 4.0 0.00 0.00 0.00 47 1012.5
20260904202925 100 266 4.0 4.0 0.00 0.00 0.00 47 1012.4
20260904202421 99 296 4.0 6.0 0.00 0.00 0.00 48 1012.7
20260904201916 100 301 4.0 5.0 0.00 0.00 0.00 47 1012.6
20260904201411 101 326 3.0 5.0 0.00 0.00 0.00 47 1012.7
20260904200907 102 284 1.0 4.0 0.00 0.00 0.00 47 1012.8
20260904200405 100 233 2.0 4.0 0.00 0.00 0.00 48 1012.7
20260904195859 100 309 3.0 5.0 0.00 0.00 0.00 49 1012.9
20260904195357 100 308 4.0 5.0 0.00 0.00 0.00 48 1013.1
20260904194852 99 308 2.0 3.0 0.00 0.00 0.00 50 1013.2
20260904194351 98 321 2.0 3.0 0.00 0.00 0.00 50 1013.4
20260904193847 99 328 1.0 4.0 0.00 0.00 0.00 48 1013.5
20260904193342 99 114 1.0 6.0 0.00 0.00 0.00 49 1013.4
20260904192838 99 299 2.0 4.0 0.00 0.00 0.00 49 1013.5
20260904192333 96 287 2.0 5.0 0.00 0.00 0.00 52 1013.4
20260904191830 97 317 3.0 5.0 0.00 0.00 0.00 51 1013.5
20260904191326 98 264 1.0 5.0 0.00 0.00 0.00 51 1013.5
20260904190822 98 248 4.0 5.0 0.00 0.00 0.00 50 1013.6
20260904190317 99 346 1.0 5.0 0.00 0.00 0.00 51 1013.7
20260904185814 99 244 0.0 3.0 0.00 0.00 0.00 50 1013.7
20260904185309 99 38 3.0 6.0 0.00 0.00 0.00 50 1013.7
20260904184808 98 241 4.0 5.0 0.00 0.00 0.00 51 1013.7
20260904184303 97 154 0.0 3.0 0.00 0.00 0.00 51 1013.7
20260904183759 97 287 1.0 3.0 0.00 0.00 0.00 51 1013.8
20260904183253 98 291 3.0 4.0 0.00 0.00 0.00 51 1013.8
20260904182749 96 282 3.0 5.0 0.00 0.00 0.00 54 1014.0
20260904182244 95 319 0.0 5.0 0.00 0.00 0.00 55 1014.3
20260904181739 97 307 1.0 4.0 0.00 0.00 0.00 53 1014.3
20260904181239 98 253 6.0 6.0 0.00 0.00 0.00 51 1014.3
20260904180734 97 327 1.0 2.0 0.00 0.00 0.00 52 1014.3
20260904180230 96 163 2.0 3.0 0.00 0.00 0.00 51 1014.5
20260904175729 96 260 2.0 4.0 0.00 0.00 0.00 51 1014.7
20260904175227 97 251 2.0 3.0 0.00 0.00 0.00 50 1014.6
20260904174722 97 83 2.0 4.0 0.00 0.00 0.00 50 1014.7
20260904174218 97 272 1.0 3.0 0.00 0.00 0.00 52 1014.5
20260904173714 97 285 2.0 3.0 0.00 0.00 0.00 52 1014.8
20260904173208 96 283 3.0 4.0 0.00 0.00 0.00 53 1014.9
20260904172705 96 248 3.0 4.0 0.00 0.00 0.00 53 1015.0
20260904172204 96 241 2.0 3.0 0.00 0.00 0.00 55 1015.1
20260904171700 95 269 5.0 5.0 0.00 0.00 0.00 56 1015.0
20260904171154 95 145 2.0 3.0 0.00 0.00 0.00 57 1015.1
20260904170651 95 299 2.0 3.0 0.00 0.00 0.00 57 1014.9
20260904170146 96 18 2.0 3.0 0.00 0.00 0.00 57 1015.2
20260904165645 95 305 2.0 2.0 0.00 0.00 0.00 58 1015.1
20260904165144 94 305 2.0 2.0 0.00 0.00 0.00 58 1015.4
20260904164639 94 326 2.0 5.0 0.00 0.00 0.00 59 1015.2
20260904164134 94 133 6.0 6.0 0.00 0.00 0.00 59 1015.1
20260904163630 93 322 4.0 6.0 0.00 0.00 0.00 61 1015.3
20260904163126 93 317 2.0 4.0 0.00 0.00 0.00 61 1015.3
20260904162620 93 257 1.0 4.0 0.00 0.00 0.00 62 1015.2
20260904162115 93 299 4.0 4.0 0.00 0.00 0.00 63 1015.2
20260904161610 93 228 0.0 4.0 0.00 0.00 0.00 64 1015.2
20260904161105 92 271 1.0 3.0 0.00 0.00 0.00 65 1015.2
20260904160601 92 310 0.0 3.0 0.00 0.00 0.00 65 1015.2
20260904160057 91 45 2.0 4.0 0.00 0.00 0.00 66 1015.2
20260904155555 90 311 3.0 5.0 0.00 0.00 0.00 69 1015.3
20260904155050 90 63 2.0 4.0 0.00 0.00 0.00 70 1015.5
20260904154543 90 5 2.0 4.0 0.00 0.00 0.00 69 1015.3
20260904154038 89 263 2.0 5.0 0.00 0.00 0.00 72 1015.3
20260904153538 89 296 6.0 6.0 0.00 0.00 0.00 71 1015.3
20260904153034 91 310 2.0 2.0 0.00 0.00 0.00 70 1015.1
20260904152530 89 310 4.0 4.0 0.00 0.00 0.00 73 1015.2
20260904152025 89 167 0.0 2.0 0.00 0.00 0.00 74 1015.0
20260904151514 89 248 2.0 3.0 0.00 0.00 0.00 74 1015.2
20260904151009 88 308 3.0 4.0 0.00 0.00 0.00 77 1015.2
20260904150508 88 262 2.0 3.0 0.00 0.00 0.00 76 1015.3
20260904150003 87 154 0.0 3.0 0.00 0.00 0.00 78 1015.2
20260904145458 87 328 3.0 5.0 0.00 0.00 0.00 78 1015.0
20260904144953 87 315 2.0 5.0 0.00 0.00 0.00 78 1014.9
20260904144448 87 337 2.0 3.0 0.00 0.00 0.00 80 1015.2
20260904143944 87 60 0.0 2.0 0.00 0.00 0.00 80 1015.2
20260904143440 86 219 1.0 3.0 0.00 0.00 0.00 81 1015.3
20260904142936 85 310 3.0 4.0 0.00 0.00 0.00 83 1015.3
20260904142433 85 323 2.0 4.0 0.00 0.00 0.00 84 1015.3
20260904141927 84 299 4.0 4.0 0.00 0.00 0.00 86 1015.1
20260904141422 83 283 3.0 4.0 0.00 0.00 0.00 87 1015.1
20260904140919 83 305 3.0 4.0 0.00 0.00 0.00 88 1015.1
20260904140418 83 294 2.0 3.0 0.00 0.00 0.00 88 1015.1
20260904135917 82 203 0.0 3.0 0.00 0.00 0.00 88 1015.1
20260904135417 82 264 2.0 2.0 0.00 0.00 0.00 89 1015.0
20260904134914 82 248 0.0 4.0 0.00 0.00 0.00 88 1015.0
20260904134413 83 264 2.0 3.0 0.00 0.00 0.00 88 1015.0
20260904133909 82 318 0.0 3.0 0.00 0.00 0.00 88 1014.8
20260904133409 82 291 7.0 7.0 0.00 0.00 0.00 88 1015.0
20260904132904 82 211 1.0 2.0 0.00 0.00 0.00 89 1014.7
20260904132359 81 278 1.0 3.0 0.00 0.00 0.00 90 1014.8
20260904131859 81 321 2.0 3.0 0.00 0.00 0.00 90 1014.8
20260904131354 80 320 2.0 2.0 0.00 0.00 0.00 91 1014.6
20260904130849 80 259 0.0 2.0 0.00 0.00 0.00 92 1014.7
20260904130348 79 347 2.0 2.0 0.00 0.00 0.00 93 1014.7
20260904125844 78 320 0.0 1.0 0.00 0.00 0.00 94 1014.7
20260904125340 77 307 0.0 2.0 0.00 0.00 0.00 96 1014.5
20260904124839 77 309 1.0 2.0 0.00 0.00 0.00 96 1014.6
20260904124335 77 283 1.0 2.0 0.00 0.00 0.00 97 1014.7
20260904123831 77 274 1.0 2.0 0.00 0.00 0.00 97 1014.5
20260904123326 77 286 1.0 2.0 0.00 0.00 0.00 96 1014.4
20260904122820 76 252 0.0 2.0 0.00 0.00 0.00 96 1014.6
20260904122315 76 253 0.0 2.0 0.00 0.00 0.00 96 1014.5
20260904121810 76 262 0.0 3.0 0.00 0.00 0.00 96 1014.3
20260904121306 76 288 3.0 3.0 0.00 0.00 0.00 96 1014.5
20260904120803 76 284 0.0 3.0 0.00 0.00 0.00 96 1014.4
20260904120258 76 316 2.0 3.0 0.00 0.00 0.00 96 1014.4
20260904115753 76 310 1.0 2.0 0.00 0.00 0.00 96 1014.3
20260904115248 76 237 3.0 3.0 0.00 0.00 0.00 96 1014.2
20260904114743 76 244 1.0 2.0 0.00 0.00 0.00 96 1014.2
20260904114242 76 230 0.0 2.0 0.00 0.00 0.00 95 1014.2
20260904113737 76 240 0.0 1.0 0.00 0.00 0.00 95 1014.1
20260904113237 76 334 0.0 1.0 0.00 0.00 0.00 95 1014.0
20260904112732 76 282 0.0 0.0 0.00 0.00 0.00 95 1014.1
20260904112227 76 1 0.0 2.0 0.00 0.00 0.00 95 1014.0
20260904111723 76 104 0.0 2.0 0.00 0.00 0.00 94 1014.1
20260904111219 76 279 1.0 2.0 0.00 0.00 0.00 94 1013.9
20260904110714 76 302 0.0 2.0 0.00 0.00 0.00 94 1014.1
20260904110213 76 315 0.0 1.0 0.00 0.00 0.00 94 1014.0
20260904105708 76 230 2.0 3.0 0.00 0.00 0.00 93 1013.8
20260904105203 76 226 2.0 2.0 0.00 0.00 0.00 93 1014.0
20260904104658 76 319 2.0 2.0 0.00 0.00 0.00 93 1014.1
20260904104154 76 309 2.0 2.0 0.00 0.00 0.00 93 1013.8
20260904103650 76 257 1.0 2.0 0.00 0.00 0.00 92 1013.7
20260904103145 77 282 1.0 3.0 0.00 0.00 0.00 92 1013.7
20260904102641 77 281 1.0 2.0 0.00 0.00 0.00 92 1013.7
20260904102136 77 300 3.0 3.0 0.00 0.00 0.00 92 1013.8
20260904101633 77 243 0.0 2.0 0.00 0.00 0.00 91 1013.7
20260904101128 77 230 0.0 2.0 0.00 0.00 0.00 91 1013.7
20260904100624 77 307 0.0 2.0 0.00 0.00 0.00 91 1013.7
20260904100119 77 265 0.0 2.0 0.00 0.00 0.00 91 1013.6
20260904095614 77 255 0.0 2.0 0.00 0.00 0.00 90 1013.7
20260904095108 77 241 0.0 2.0 0.00 0.00 0.00 90 1013.6
20260904094609 77 274 2.0 2.0 0.00 0.00 0.00 90 1013.5
20260904094103 78 255 0.0 2.0 0.00 0.00 0.00 90 1013.6
20260904093600 78 269 0.0 2.0 0.00 0.00 0.00 90 1013.5
20260904093055 78 320 0.0 1.0 0.00 0.00 0.00 90 1013.5
20260904092551 78 281 0.0 1.0 0.00 0.00 0.00 90 1013.6
20260904092047 78 37 0.0 1.0 0.00 0.00 0.00 90 1013.6
20260904091543 78 313 0.0 2.0 0.00 0.00 0.00 89 1013.6
20260904091042 78 205 0.0 0.0 0.00 0.00 0.00 89 1013.4
20260904090538 78 181 0.0 2.0 0.00 0.00 0.00 89 1013.8
20260904090033 78 240 0.0 1.0 0.00 0.00 0.00 89 1013.7
20260904085528 78 335 0.0 2.0 0.00 0.00 0.00 89 1013.7
20260904085028 78 269 0.0 1.0 0.00 0.00 0.00 88 1013.6
20260904084524 78 321 0.0 1.0 0.00 0.00 0.00 88 1013.7
20260904084020 78 283 1.0 1.0 0.00 0.00 0.00 88 1013.6
20260904083515 78 269 0.0 1.0 0.00 0.00 0.00 88 1013.6
20260904083011 78 157 0.0 2.0 0.00 0.00 0.00 88 1013.6
20260904082506 78 291 0.0 2.0 0.00 0.00 0.00 88 1013.5
20260904082001 78 245 0.0 1.0 0.00 0.00 0.00 88 1013.7
20260904081456 78 309 1.0 1.0 0.00 0.00 0.00 88 1013.6
20260904080952 78 310 0.0 1.0 0.00 0.00 0.00 87 1013.5
20260904080448 78 269 0.0 0.0 0.00 0.00 0.00 87 1013.5
20260904075943 78 349 0.0 1.0 0.00 0.00 0.00 87 1013.7
20260904075439 78 342 0.0 1.0 0.00 0.00 0.00 87 1013.4
20260904074938 78 252 0.0 1.0 0.00 0.00 0.00 87 1013.5
20260904074433 78 182 0.0 1.0 0.00 0.00 0.00 87 1013.4
20260904073928 78 269 0.0 1.0 0.00 0.00 0.00 86 1013.5
20260904073424 79 113 0.0 2.0 0.00 0.00 0.00 86 1013.4
20260904072919 79 54 0.0 1.0 0.00 0.00 0.00 86 1013.5
20260904072415 79 180 1.0 2.0 0.00 0.00 0.00 86 1013.5
20260904071910 79 314 0.0 2.0 0.00 0.00 0.00 86 1013.6
20260904071405 79 315 0.0 1.0 0.00 0.00 0.00 86 1013.3
20260904070900 79 257 0.0 2.0 0.00 0.00 0.00 85 1013.4
20260904070359 79 288 1.0 1.0 0.00 0.00 0.00 85 1013.5
20260904065854 79 281 0.0 1.0 0.00 0.00 0.00 85 1013.8
20260904065350 79 321 0.0 2.0 0.00 0.00 0.00 84 1013.7
20260904064850 79 321 1.0 2.0 0.00 0.00 0.00 84 1013.9
20260904064346 79 321 1.0 2.0 0.00 0.00 0.00 84 1013.9
20260904063841 79 261 0.0 3.0 0.00 0.00 0.00 84 1013.7
20260904063338 79 75 0.0 2.0 0.00 0.00 0.00 84 1013.8
20260904062838 79 312 1.0 2.0 0.00 0.00 0.00 84 1013.8
20260904062334 79 305 2.0 2.0 0.00 0.00 0.00 83 1013.8
20260904061829 80 252 0.0 2.0 0.00 0.00 0.00 83 1013.7
20260904061326 80 309 0.0 2.0 0.00 0.00 0.00 83 1013.6
20260904060821 80 310 2.0 2.0 0.00 0.00 0.00 83 1013.6
20260904060317 80 311 2.0 2.0 0.00 0.00 0.00 82 1013.5
20260904055812 80 289 1.0 2.0 0.00 0.00 0.00 82 1013.7
20260904055307 80 297 1.0 2.0 0.00 0.00 0.00 82 1013.7
20260904054802 80 232 1.0 3.0 0.00 0.00 0.00 81 1013.7
20260904054259 80 50 0.0 2.0 0.00 0.00 0.00 81 1013.7
20260904053754 80 198 2.0 2.0 0.00 0.00 0.00 81 1013.7
20260904053253 80 326 3.0 4.0 0.00 0.00 0.00 81 1013.6
20260904052750 80 273 2.0 2.0 0.00 0.00 0.00 81 1013.8
20260904052245 80 281 0.0 2.0 0.00 0.00 0.00 80 1013.7
20260904051743 80 322 2.0 2.0 0.00 0.00 0.00 80 1013.4
20260904051242 81 283 0.0 3.0 0.00 0.00 0.00 80 1013.7
20260904050737 81 211 2.0 3.0 0.00 0.00 0.00 79 1013.6
20260904050235 81 242 0.0 2.0 0.00 0.00 0.00 79 1013.6
20260904045734 81 281 2.0 3.0 0.00 0.00 0.00 78 1013.6
20260904045229 81 196 2.0 4.0 0.00 0.00 0.00 78 1013.7
20260904044724 81 328 2.0 5.0 0.00 0.00 0.00 78 1013.5
20260904044220 81 305 0.0 3.0 0.00 0.00 0.00 78 1013.5
20260904043717 81 181 2.0 3.0 0.00 0.00 0.00 78 1013.6
20260904043213 81 289 1.0 3.0 0.00 0.00 0.00 78 1013.7
20260904042708 81 325 0.0 4.0 0.00 0.00 0.00 79 1013.6
20260904042205 81 347 0.0 3.0 0.00 0.00 0.00 78 1013.6
20260904041704 81 336 0.0 3.0 0.00 0.00 0.00 78 1013.7
20260904041200 81 305 1.0 3.0 0.00 0.00 0.00 77 1013.9
20260904040656 81 265 2.0 3.0 0.00 0.00 0.00 77 1013.6
20260904040152 81 280 2.0 4.0 0.00 0.00 0.00 76 1013.7
20260904035647 82 347 0.0 2.0 0.00 0.00 0.00 76 1013.9
20260904035142 82 321 1.0 4.0 0.00 0.00 0.00 76 1013.7
20260904034641 82 93 1.0 4.0 0.00 0.00 0.00 76 1013.8
20260904034137 82 293 3.0 4.0 0.00 0.00 0.00 75 1013.8
20260904033633 82 99 0.0 2.0 0.00 0.00 0.00 74 1013.7
20260904033130 82 297 2.0 2.0 0.00 0.00 0.00 73 1013.7
20260904032625 82 290 1.0 2.0 0.00 0.00 0.00 73 1013.9
20260904032124 82 315 0.0 3.0 0.00 0.00 0.00 72 1013.9
20260904031623 82 175 3.0 3.0 0.00 0.00 0.00 72 1013.8
20260904031120 82 224 2.0 3.0 0.00 0.00 0.00 72 1014.0
20260904030615 82 256 3.0 3.0 0.00 0.00 0.00 72 1013.8
20260904030110 82 324 0.0 3.0 0.00 0.00 0.00 72 1013.6